Concordia, KS

12:03 AM CST on February 25, 2017 (GMT -0600)
Blosser Municipal

Weather History for KCNK - March, 2013

Change the Weather History Date:

Tuesday, March 5, 2013

  Actual Average Record
Temperature  
Mean Temperature 31 °F 39 °F  
Max Temperature 39 °F 50 °F 81 °F (2009)
Min Temperature 23 °F 28 °F 2 °F (1960)
Degree Days  
Heating Degree Days 34 26  
Month to date heating degree days 168 133  
Since 1 July heating degree days 4187 4340  
Cooling Degree Days 0 0  
Month to date cooling degree days 0 0  
Year to date cooling degree days 0 0  
Moisture  
Dew Point 15 °F    
Average Humidity 53    
Maximum Humidity 68    
Minimum Humidity 37    
Precipitation  
Precipitation 0.00 in 0.05 in 1.16 in (1892)
Month to date precipitation 0.04 0.22  
Year to date precipitation 1.52 1.59  
Snow  
Snow 0.00 in 0.00 in 1.60 in (1963)
Month to date snowfall 0.0 0.3  
Year to date snowfall 13.6 10.7  
Since 1 July snowfall 22.1 17.2  
Snow Depth 0.00 in    
Sea Level Pressure  
Sea Level Pressure 30.31 in    
Wind  
Wind Speed 16 mph (NNW)    
Max Wind Speed 32 mph    
Max Gust Speed 45 mph    
Visibility 10 miles    
Events      
T = Trace of Precipitation, MM = Missing Value Source: NWS Daily Summary

Daily Weather History Graph

Daily Weather History Graph

Search for Another Location

Airport or City:

Trip Planner

Search our weather history database for the weather conditions in past years. The results will help you decide how hot, cold, wet, or windy it might be!

Date:

Astronomy

Mar. 05, 2013 Rise Set
Actual Time 6:57 AM CST 6:27 PM CST
Civil Twilight 6:30 AM CST 6:54 PM CST
Nautical Twilight 5:59 AM CST 7:25 PM CST
Astronomical Twilight 5:27 AM CST 7:56 PM CST
Moon 2:09 AM CST (3/5) 12:08 PM CST (3/5)
Length of Visible Light 12h 24m
Length of Day
11h 30m
Last Quarter, 40% of the Moon is Illuminated
Mar 5
Last Quarter
Mar 11
New
Mar 19
First Quarter
Mar 27
Full
Apr 2
Last Quarter

Hourly Weather History & Observations

Time (CST) Temp. Windchill Dew Point Humidity Pressure Visibility Wind Dir Wind Speed Gust Speed Precip Events Conditions
1:55 AM 28.9 °F 17.7 °F 15.1 °F 56% 30.17 in 10.0 mi NW 15.0 mph - N/A   Clear
2:55 AM 28.0 °F 15.7 °F 12.9 °F 53% 30.18 in 10.0 mi NW 17.3 mph 29.9 mph N/A   Clear
3:55 AM 26.1 °F 12.0 °F 12.0 °F 55% 30.19 in 10.0 mi NNW 20.7 mph 31.1 mph N/A   Clear
4:55 AM 26.1 °F 13.1 °F 14.0 °F 60% 30.20 in 10.0 mi NW 17.3 mph 25.3 mph N/A   Clear
5:55 AM 25.0 °F 13.1 °F 14.0 °F 63% 30.22 in 10.0 mi WNW 13.8 mph - N/A   Clear
6:55 AM 25.0 °F 12.2 °F 12.9 °F 60% 30.25 in 10.0 mi NW 16.1 mph 29.9 mph N/A   Clear
7:55 AM 27.0 °F 14.3 °F 14.0 °F 58% 30.27 in 10.0 mi NW 17.3 mph - N/A   Clear
8:55 AM 28.0 °F 13.9 °F 14.0 °F 56% 30.29 in 10.0 mi NNW 23.0 mph 28.8 mph N/A   Clear
9:55 AM 30.9 °F 17.5 °F 15.1 °F 52% 30.30 in 10.0 mi NW 24.2 mph 32.2 mph N/A   Clear
10:55 AM 33.1 °F 20.9 °F 16.0 °F 50% 30.31 in 10.0 mi NNW 21.9 mph 31.1 mph N/A   Clear
11:55 AM 34.0 °F 21.8 °F 16.0 °F 48% 30.32 in 10.0 mi NW 23.0 mph 33.4 mph N/A   Partly Cloudy
12:55 PM 37.0 °F 25.6 °F 17.1 °F 44% 30.33 in 10.0 mi NNW 24.2 mph 31.1 mph N/A   Partly Cloudy
1:55 PM 37.9 °F 27.3 °F 17.1 °F 43% 30.32 in 10.0 mi NNW 21.9 mph 33.4 mph N/A   Clear
2:55 PM 37.9 °F 27.6 °F 16.0 °F 41% 30.32 in 10.0 mi NNW 20.7 mph 28.8 mph N/A   Clear
3:55 PM 39.0 °F 29.3 °F 16.0 °F 39% 30.33 in 10.0 mi NW 19.6 mph - N/A   Clear
4:55 PM 37.9 °F 28.5 °F 16.0 °F 41% 30.33 in 10.0 mi NNW 17.3 mph 24.2 mph N/A   Clear
5:55 PM 35.1 °F 25.9 °F 16.0 °F 46% 30.35 in 10.0 mi NNW 13.8 mph - N/A   Clear
6:55 PM 32.0 °F 25.6 °F 17.1 °F 54% 30.37 in 10.0 mi North 6.9 mph - N/A   Clear
7:55 PM 30.0 °F 25.2 °F 17.1 °F 59% 30.39 in 10.0 mi NW 4.6 mph - N/A   Clear
8:55 PM 28.0 °F 20.8 °F 16.0 °F 61% 30.40 in 10.0 mi NNW 6.9 mph - N/A   Clear
9:55 PM 26.1 °F 20.5 °F 16.0 °F 66% 30.42 in 10.0 mi NNW 4.6 mph - N/A   Clear
10:55 PM 26.1 °F 18.4 °F 17.1 °F 69% 30.42 in 10.0 mi North 6.9 mph - N/A   Clear
11:55 PM 24.1 °F 17.0 °F 16.0 °F 71% 30.43 in 10.0 mi North 5.8 mph - N/A   Clear